Time,TemperatureF,DewpointF,PressureIn,WindDirection,WindDirectionDegrees,WindSpeedMPH,WindSpeedGustMPH,Humidity,HourlyPrecipIn,Conditions,Clouds,dailyrainin,SoftwareType,DateUTC
2013-09-27 00:00:00,54.0,39.0,-100.00,SSW,192,1.0,-999.0,55,0.00,,,-99.99,,2013-09-27 07:00:00,
2013-09-27 00:44:00,54.0,39.0,-100.00,SSW,192,1.0,-999.0,55,0.00,,,-99.99,,2013-09-27 07:44:00,
2013-09-27 00:53:00,54.0,39.0,-100.00,SSW,192,1.0,-999.0,55,0.00,,,-99.99,,2013-09-27 07:53:00,
2013-09-27 01:00:00,51.0,38.0,-100.00,SSE,147,3.0,-999.0,59,0.00,,,-99.99,,2013-09-27 08:00:00,
2013-09-27 01:42:00,51.0,38.0,-100.00,SSE,147,3.0,-999.0,59,0.00,,,-99.99,,2013-09-27 08:42:00,
2013-09-27 01:52:00,51.0,38.0,-100.00,SSE,147,3.0,-999.0,59,0.00,,,-99.99,,2013-09-27 08:52:00,
2013-09-27 02:00:00,51.0,38.0,-100.00,ESE,115,6.0,-999.0,59,0.00,,,-99.99,,2013-09-27 09:00:00,
2013-09-27 02:44:00,51.0,38.0,-100.00,ESE,115,6.0,-999.0,59,0.00,,,-99.99,,2013-09-27 09:44:00,
2013-09-27 02:53:00,51.0,38.0,-100.00,ESE,115,6.0,-999.0,59,0.00,,,-99.99,,2013-09-27 09:53:00,
2013-09-27 03:00:00,51.0,38.0,-100.00,SE,141,4.0,-999.0,61,0.00,,,-99.99,,2013-09-27 10:00:00,
2013-09-27 03:42:00,51.0,38.0,-100.00,SE,141,4.0,-999.0,61,0.00,,,-99.99,,2013-09-27 10:42:00,
2013-09-27 03:52:00,51.0,38.0,-100.00,SE,141,4.0,-999.0,61,0.00,,,-99.99,,2013-09-27 10:52:00,
2013-09-27 04:00:00,51.0,37.0,-100.00,ESE,110,5.0,-999.0,59,0.00,,,-99.99,,2013-09-27 11:00:00,
2013-09-27 04:43:00,51.0,37.0,-100.00,ESE,110,5.0,-999.0,59,0.00,,,-99.99,,2013-09-27 11:43:00,
2013-09-27 04:52:00,51.0,37.0,-100.00,ESE,110,5.0,-999.0,59,0.00,,,-99.99,,2013-09-27 11:52:00,
2013-09-27 05:00:00,51.0,37.0,-100.00,SW,223,4.0,-999.0,59,0.00,,,-99.99,,2013-09-27 12:00:00,
2013-09-27 05:42:00,51.0,37.0,-100.00,SW,223,4.0,-999.0,59,0.00,,,-99.99,,2013-09-27 12:42:00,
2013-09-27 05:52:00,51.0,37.0,-100.00,SW,223,4.0,-999.0,59,0.00,,,-99.99,,2013-09-27 12:52:00,
2013-09-27 06:00:00,46.0,36.0,-100.00,SW,221,3.0,-999.0,69,0.00,,,-99.99,,2013-09-27 13:00:00,
2013-09-27 06:42:00,46.0,36.0,-100.00,SW,221,3.0,-999.0,69,0.00,,,-99.99,,2013-09-27 13:42:00,
2013-09-27 06:52:00,46.0,36.0,-100.00,SW,221,3.0,-999.0,69,0.00,,,-99.99,,2013-09-27 13:52:00,
2013-09-27 07:00:00,48.0,36.0,-100.00,SE,135,3.0,-999.0,63,0.00,,,-99.99,,2013-09-27 14:00:00,
2013-09-27 07:42:00,48.0,36.0,-100.00,SE,135,3.0,-999.0,63,0.00,,,-99.99,,2013-09-27 14:42:00,
2013-09-27 07:52:00,48.0,36.0,-100.00,SE,135,3.0,-999.0,63,0.00,,,-99.99,,2013-09-27 14:52:00,
2013-09-27 08:00:00,53.0,37.0,-100.00,ENE,76,4.0,-999.0,53,0.00,,,-99.99,,2013-09-27 15:00:00,
2013-09-27 08:44:00,53.0,37.0,-100.00,ENE,76,4.0,-999.0,53,0.00,,,-99.99,,2013-09-27 15:44:00,
2013-09-27 08:54:00,53.0,37.0,-100.00,ENE,76,4.0,-999.0,53,0.00,,,-99.99,,2013-09-27 15:54:00,
2013-09-27 09:00:00,60.0,36.0,-100.00,South,174,5.0,-999.0,41,0.00,,,-99.99,,2013-09-27 16:00:00,
2013-09-27 09:44:00,60.0,36.0,-100.00,South,174,5.0,-999.0,41,0.00,,,-99.99,,2013-09-27 16:44:00,
2013-09-27 09:53:00,60.0,36.0,-100.00,South,174,5.0,-999.0,41,0.00,,,-99.99,,2013-09-27 16:53:00,
2013-09-27 10:00:00,64.0,35.0,-100.00,South,183,6.0,-999.0,34,0.00,,,-99.99,,2013-09-27 17:00:00,
2013-09-27 10:43:00,64.0,35.0,-100.00,South,183,6.0,-999.0,34,0.00,,,-99.99,,2013-09-27 17:43:00,
2013-09-27 10:52:00,64.0,35.0,-100.00,South,183,6.0,-999.0,34,0.00,,,-99.99,,2013-09-27 17:52:00,
2013-09-27 11:00:00,68.0,37.0,-100.00,SSW,199,12.0,-999.0,31,0.00,,,-99.99,,2013-09-27 18:00:00,
2013-09-27 11:43:00,68.0,37.0,-100.00,SSW,199,12.0,-999.0,31,0.00,,,-99.99,,2013-09-27 18:43:00,
2013-09-27 11:52:00,68.0,37.0,-100.00,SSW,199,12.0,-999.0,31,0.00,,,-99.99,,2013-09-27 18:52:00,
2013-09-27 12:00:00,71.0,37.0,-100.00,WSW,254,12.0,-999.0,29,0.00,,,-99.99,,2013-09-27 19:00:00,
2013-09-27 12:43:00,71.0,37.0,-100.00,WSW,254,12.0,-999.0,29,0.00,,,-99.99,,2013-09-27 19:43:00,
2013-09-27 12:53:00,71.0,37.0,-100.00,WSW,254,12.0,-999.0,29,0.00,,,-99.99,,2013-09-27 19:53:00,
2013-09-27 13:00:00,72.0,36.0,-100.00,WSW,258,7.0,-999.0,27,0.00,,,-99.99,,2013-09-27 20:00:00,
2013-09-27 13:43:00,72.0,36.0,-100.00,WSW,258,7.0,-999.0,27,0.00,,,-99.99,,2013-09-27 20:43:00,
2013-09-27 13:52:00,72.0,36.0,-100.00,WSW,258,7.0,-999.0,27,0.00,,,-99.99,,2013-09-27 20:52:00,
2013-09-27 14:00:00,75.0,35.0,-100.00,SW,228,2.0,-999.0,23,0.00,,,-99.99,,2013-09-27 21:00:00,
2013-09-27 14:44:00,75.0,35.0,-100.00,SW,228,2.0,-999.0,23,0.00,,,-99.99,,2013-09-27 21:44:00,
2013-09-27 14:54:00,75.0,35.0,-100.00,SW,228,2.0,-999.0,23,0.00,,,-99.99,,2013-09-27 21:54:00,
2013-09-27 15:00:00,77.0,35.0,-100.00,NW,308,3.0,-999.0,21,0.00,,,-99.99,,2013-09-27 22:00:00,
2013-09-27 15:43:00,77.0,35.0,-100.00,NW,308,3.0,-999.0,21,0.00,,,-99.99,,2013-09-27 22:43:00,
2013-09-27 15:53:00,77.0,35.0,-100.00,NW,308,3.0,-999.0,21,0.00,,,-99.99,,2013-09-27 22:53:00,
2013-09-27 16:00:00,77.0,34.0,-100.00,SW,226,5.0,-999.0,20,0.00,,,-99.99,,2013-09-27 23:00:00,
2013-09-27 16:43:00,77.0,34.0,-100.00,SW,226,5.0,-999.0,20,0.00,,,-99.99,,2013-09-27 23:43:00,
2013-09-27 16:53:00,77.0,34.0,-100.00,SW,226,5.0,-999.0,20,0.00,,,-99.99,,2013-09-27 23:53:00,
2013-09-27 17:00:00,78.0,34.0,-100.00,West,280,7.0,-999.0,20,0.00,,,-99.99,,2013-09-28 00:00:00,
2013-09-27 17:42:00,78.0,34.0,-100.00,West,280,7.0,-999.0,20,0.00,,,-99.99,,2013-09-28 00:42:00,
2013-09-27 17:52:00,78.0,34.0,-100.00,West,280,7.0,-999.0,20,0.00,,,-99.99,,2013-09-28 00:52:00,
2013-09-27 18:00:00,77.0,34.0,-100.00,WSW,253,6.0,-999.0,20,0.00,,,-99.99,,2013-09-28 01:00:00,
2013-09-27 18:42:00,77.0,34.0,-100.00,WSW,253,6.0,-999.0,20,0.00,,,-99.99,,2013-09-28 01:42:00,
2013-09-27 18:52:00,77.0,34.0,-100.00,WSW,253,6.0,-999.0,20,0.00,,,-99.99,,2013-09-28 01:52:00,
2013-09-27 19:00:00,75.0,35.0,-100.00,WNW,291,2.0,-999.0,23,0.00,,,-99.99,,2013-09-28 02:00:00,
2013-09-27 19:42:00,75.0,35.0,-100.00,WNW,291,2.0,-999.0,23,0.00,,,-99.99,,2013-09-28 02:42:00,
2013-09-27 19:53:00,75.0,35.0,-100.00,WNW,291,2.0,-999.0,23,0.00,,,-99.99,,2013-09-28 02:53:00,
2013-09-27 20:00:00,69.0,38.0,-100.00,West,267,0.0,-999.0,33,0.00,,,-99.99,,2013-09-28 03:00:00,
2013-09-27 20:45:00,69.0,38.0,-100.00,West,267,0.0,-999.0,33,0.00,,,-99.99,,2013-09-28 03:45:00,
2013-09-27 20:55:00,69.0,38.0,-100.00,West,267,0.0,-999.0,33,0.00,,,-99.99,,2013-09-28 03:55:00,
2013-09-27 21:00:00,64.0,41.0,-100.00,SE,132,2.0,-999.0,42,0.00,,,-99.99,,2013-09-28 04:00:00,
2013-09-27 21:43:00,64.0,41.0,-100.00,SE,132,2.0,-999.0,42,0.00,,,-99.99,,2013-09-28 04:43:00,
2013-09-27 21:54:00,64.0,41.0,-100.00,SE,132,2.0,-999.0,42,0.00,,,-99.99,,2013-09-28 04:54:00,
2013-09-27 22:00:00,60.0,42.0,-100.00,ESE,115,4.0,-999.0,51,0.00,,,-99.99,,2013-09-28 05:00:00,
2013-09-27 22:43:00,60.0,42.0,-100.00,ESE,115,4.0,-999.0,51,0.00,,,-99.99,,2013-09-28 05:43:00,
2013-09-27 22:53:00,60.0,42.0,-100.00,ESE,115,4.0,-999.0,51,0.00,,,-99.99,,2013-09-28 05:53:00,
2013-09-27 23:00:00,59.0,39.0,-100.00,SSE,156,4.0,-999.0,48,0.00,,,-99.99,,2013-09-28 06:00:00,
2013-09-27 23:42:00,59.0,39.0,-100.00,SSE,156,4.0,-999.0,48,0.00,,,-99.99,,2013-09-28 06:42:00,
2013-09-27 23:52:00,59.0,39.0,-100.00,SSE,156,4.0,-999.0,48,0.00,,,-99.99,,2013-09-28 06:52:00,